| time (UTC) | temp C | wind direction | speed KPH | gust KPH | rain 1hr cm | rain 24hr cm | rain mn cm | humidity % | barometer mb |
| 20260507065142 | 2 | 265 | 0.0 | 0.0 | 0.00 | 0.00 | 0.00 | 67 | 1023.4 |
| 20260507064635 | 1 | 269 | 0.0 | 0.0 | 0.00 | 0.00 | 0.00 | 68 | 1023.3 |
| 20260507064130 | 1 | 269 | 0.0 | 0.0 | 0.00 | 0.00 | 0.00 | 69 | 1023.3 |
| 20260507063624 | 1 | 269 | 0.0 | 0.0 | 0.00 | 0.00 | 0.00 | 67 | 1023.2 |
| 20260507063140 | 1 | 269 | 0.0 | 0.0 | 0.00 | 0.00 | 0.00 | 67 | 1023.2 |
| 20260507062633 | 1 | 269 | 0.0 | 0.0 | 0.00 | 0.00 | 0.00 | 66 | 1023.3 |
| 20260507062127 | 1 | 269 | 0.0 | 0.0 | 0.00 | 0.00 | 0.00 | 65 | 1023.2 |
| 20260507061625 | 1 | 269 | 0.0 | 0.0 | 0.00 | 0.00 | 0.00 | 65 | 1023.2 |
| 20260507061139 | 1 | 269 | 0.0 | 0.0 | 0.00 | 0.00 | 0.00 | 65 | 1023.2 |
| 20260507060634 | 1 | 269 | 0.0 | 0.0 | 0.00 | 0.00 | 0.00 | 66 | 1023.2 |
| 20260507060127 | 1 | 269 | 0.0 | 0.0 | 0.00 | 0.00 | 0.00 | 66 | 1023.1 |
| 20260507055638 | 1 | 269 | 0.0 | 0.0 | 0.00 | 0.00 | 0.00 | 66 | 1023.0 |
| 20260507055134 | 0 | 269 | 0.0 | 0.0 | 0.00 | 0.00 | 0.00 | 67 | 1022.9 |
| 20260507054628 | 0 | 269 | 0.0 | 0.0 | 0.00 | 0.00 | 0.00 | 66 | 1022.8 |
| 20260507054142 | 0 | 269 | 0.0 | 0.0 | 0.00 | 0.00 | 0.00 | 64 | 1022.8 |
| 20260507053637 | 0 | 269 | 0.0 | 0.0 | 0.00 | 0.00 | 0.00 | 64 | 1022.7 |
| 20260507053135 | 1 | 269 | 0.0 | 0.0 | 0.00 | 0.00 | 0.00 | 63 | 1022.7 |
| 20260507052629 | 1 | 269 | 0.0 | 0.0 | 0.00 | 0.00 | 0.00 | 62 | 1022.7 |
| 20260507052142 | 1 | 269 | 0.0 | 0.0 | 0.00 | 0.00 | 0.00 | 61 | 1022.7 |
| 20260507051637 | 1 | 269 | 0.0 | 4.8 | 0.00 | 0.00 | 0.00 | 60 | 1022.7 |
| 20260507051129 | 1 | 269 | 1.6 | 4.8 | 0.00 | 0.00 | 0.00 | 61 | 1022.8 |
| 20260507050624 | 1 | 330 | 0.0 | 0.0 | 0.00 | 0.00 | 0.00 | 60 | 1022.8 |
| 20260507050137 | 1 | 275 | 0.0 | 0.0 | 0.00 | 0.00 | 0.00 | 60 | 1022.7 |
| 20260507045631 | 2 | 275 | 0.0 | 0.0 | 0.00 | 0.00 | 0.00 | 59 | 1022.7 |
| 20260507045123 | 2 | 275 | 0.0 | 0.0 | 0.00 | 0.00 | 0.00 | 60 | 1022.5 |
| 20260507044642 | 2 | 275 | 0.0 | 0.0 | 0.00 | 0.00 | 0.00 | 59 | 1022.5 |
| 20260507044136 | 2 | 275 | 0.0 | 0.0 | 0.00 | 0.00 | 0.00 | 58 | 1022.5 |
| 20260507043630 | 2 | 275 | 0.0 | 0.0 | 0.00 | 0.00 | 0.00 | 59 | 1022.4 |
| 20260507043125 | 2 | 275 | 0.0 | 0.0 | 0.00 | 0.00 | 0.00 | 59 | 1022.4 |
| 20260507042639 | 3 | 275 | 0.0 | 0.0 | 0.00 | 0.00 | 0.00 | 58 | 1022.3 |
| 20260507042134 | 3 | 275 | 0.0 | 0.0 | 0.00 | 0.00 | 0.00 | 58 | 1022.3 |
| 20260507041648 | 3 | 275 | 0.0 | 0.0 | 0.00 | 0.00 | 0.00 | 59 | 1022.2 |
| 20260507041141 | 3 | 275 | 0.0 | 0.0 | 0.00 | 0.00 | 0.00 | 57 | 1022.2 |
| 20260507040656 | 4 | 275 | 0.0 | 0.0 | 0.00 | 0.00 | 0.00 | 60 | 1022.2 |
| 20260507040152 | 4 | 275 | 0.0 | 3.2 | 0.00 | 0.00 | 0.00 | 60 | 1022.1 |
| 20260507035625 | 5 | 275 | 0.0 | 3.2 | 0.00 | 0.00 | 0.00 | 61 | 1022.0 |
| 20260507035140 | 5 | 275 | 0.0 | 4.8 | 0.00 | 0.00 | 0.00 | 60 | 1021.9 |
| 20260507034634 | 5 | 188 | 1.6 | 4.8 | 0.00 | 0.00 | 0.00 | 61 | 1021.8 |
| 20260507034127 | 6 | 136 | 0.0 | 0.0 | 0.00 | 0.00 | 0.00 | 60 | 1021.7 |
| 20260507033640 | 6 | 136 | 0.0 | 1.6 | 0.00 | 0.00 | 0.00 | 59 | 1021.6 |
| 20260507033134 | 6 | 136 | 0.0 | 3.2 | 0.00 | 0.00 | 0.00 | 59 | 1021.5 |
| 20260507032627 | 6 | 136 | 1.6 | 6.4 | 0.00 | 0.00 | 0.00 | 58 | 1021.5 |
| 20260507032123 | 6 | 136 | 3.2 | 6.4 | 0.00 | 0.00 | 0.00 | 56 | 1021.3 |
| 20260507031638 | 6 | 133 | 0.0 | 4.8 | 0.00 | 0.00 | 0.00 | 55 | 1021.3 |
| 20260507031132 | 7 | 111 | 0.0 | 3.2 | 0.00 | 0.00 | 0.00 | 53 | 1021.1 |
| 20260507030625 | 7 | 113 | 1.6 | 3.2 | 0.00 | 0.00 | 0.00 | 52 | 1021.1 |
| 20260507030140 | 7 | 61 | 1.6 | 6.4 | 0.00 | 0.00 | 0.00 | 52 | 1021.1 |
| 20260507025653 | 7 | 79 | 1.6 | 8.0 | 0.00 | 0.03 | 0.00 | 49 | 1021.0 |
| 20260507025125 | 8 | 132 | 1.6 | 6.4 | 0.00 | 0.03 | 0.00 | 46 | 1020.8 |
| 20260507024639 | 8 | 72 | 0.0 | 4.8 | 0.00 | 0.03 | 0.00 | 39 | 1020.7 |
| 20260507024134 | 8 | 309 | 1.6 | 4.8 | 0.00 | 0.03 | 0.00 | 40 | 1020.5 |
| 20260507023632 | 8 | 345 | 0.0 | 6.4 | 0.00 | 0.03 | 0.00 | 39 | 1020.3 |
| 20260507023126 | 8 | 315 | 1.6 | 6.4 | 0.00 | 0.03 | 0.00 | 39 | 1020.1 |
| 20260507022639 | 8 | 282 | 0.0 | 0.0 | 0.00 | 0.03 | 0.00 | 39 | 1020.0 |
| 20260507022133 | 9 | 34 | 0.0 | 0.0 | 0.00 | 0.03 | 0.00 | 35 | 1019.9 |
| 20260507021626 | 9 | 34 | 0.0 | 0.0 | 0.00 | 0.03 | 0.00 | 35 | 1019.7 |
| 20260507021140 | 10 | 34 | 0.0 | 0.0 | 0.00 | 0.03 | 0.00 | 36 | 1019.6 |
| 20260507020633 | 10 | 34 | 0.0 | 4.8 | 0.00 | 0.03 | 0.00 | 34 | 1019.5 |
| 20260507020126 | 10 | 43 | 0.0 | 9.7 | 0.00 | 0.03 | 0.00 | 33 | 1019.4 |
| 20260507015624 | 10 | 32 | 1.6 | 9.7 | 0.00 | 0.03 | 0.00 | 33 | 1019.3 |
| 20260507015139 | 10 | 22 | 1.6 | 9.7 | 0.00 | 0.03 | 0.00 | 33 | 1019.3 |
| 20260507014634 | 10 | 57 | 3.2 | 8.0 | 0.00 | 0.03 | 0.00 | 34 | 1019.2 |
| 20260507014127 | 10 | 54 | 1.6 | 8.0 | 0.00 | 0.03 | 0.00 | 35 | 1019.2 |
| 20260507013622 | 10 | 35 | 1.6 | 3.2 | 0.00 | 0.03 | 0.00 | 38 | 1019.1 |
| 20260507013135 | 10 | 32 | 1.6 | 8.0 | 0.00 | 0.03 | 0.00 | 38 | 1019.1 |
| 20260507012629 | 10 | 52 | 3.2 | 12.9 | 0.00 | 0.03 | 0.00 | 37 | 1018.9 |
| 20260507012143 | 10 | 230 | 1.6 | 8.0 | 0.00 | 0.03 | 0.00 | 40 | 1018.8 |
| 20260507011640 | 10 | 19 | 3.2 | 11.3 | 0.00 | 0.03 | 0.00 | 40 | 1018.7 |
| 20260507011132 | 10 | 282 | 3.2 | 11.3 | 0.00 | 0.03 | 0.00 | 40 | 1018.6 |
| 20260507010626 | 10 | 30 | 1.6 | 6.4 | 0.00 | 0.03 | 0.00 | 41 | 1018.6 |
| 20260507010140 | 10 | 5 | 1.6 | 6.4 | 0.00 | 0.03 | 0.00 | 42 | 1018.5 |
| 20260507005634 | 10 | 12 | 3.2 | 8.0 | 0.00 | 0.03 | 0.00 | 41 | 1018.5 |
| 20260507005147 | 10 | 54 | 3.2 | 14.5 | 0.00 | 0.03 | 0.00 | 40 | 1018.4 |
| 20260507004640 | 10 | 94 | 4.8 | 14.5 | 0.00 | 0.03 | 0.00 | 40 | 1018.5 |
| 20260507004134 | 10 | 239 | 3.2 | 9.7 | 0.00 | 0.03 | 0.00 | 40 | 1018.6 |
| 20260507003628 | 10 | 341 | 3.2 | 9.7 | 0.00 | 0.03 | 0.00 | 39 | 1018.7 |
| 20260507003125 | 11 | 221 | 3.2 | 9.7 | 0.00 | 0.03 | 0.00 | 39 | 1018.9 |
| 20260507002638 | 11 | 41 | 3.2 | 8.0 | 0.00 | 0.03 | 0.00 | 38 | 1018.7 |
| 20260507002130 | 11 | 250 | 3.2 | 9.7 | 0.00 | 0.03 | 0.00 | 35 | 1018.5 |
| 20260507001623 | 11 | 342 | 3.2 | 6.4 | 0.00 | 0.03 | 0.00 | 36 | 1018.4 |
| 20260507001158 | 11 | 40 | 3.2 | 8.0 | 0.00 | 0.03 | 0.00 | 36 | 1018.1 |
| 20260507000649 | 11 | 157 | 3.2 | 14.5 | 0.00 | 0.03 | 0.00 | 36 | 1018.1 |
| 20260507000124 | 12 | 254 | 4.8 | 19.3 | 0.00 | 0.03 | 0.00 | 36 | 1018.0 |
| 20260506235636 | 12 | 9 | 4.8 | 19.3 | 0.00 | 0.03 | 0.00 | 36 | 1018.1 |
| 20260506235128 | 12 | 313 | 6.4 | 19.3 | 0.00 | 0.03 | 0.00 | 35 | 1018.0 |
| 20260506234626 | 12 | 350 | 3.2 | 19.3 | 0.00 | 0.03 | 0.00 | 34 | 1018.0 |
| 20260506234200 | 12 | 96 | 6.4 | 17.7 | 0.00 | 0.03 | 0.00 | 34 | 1017.8 |
| 20260506233631 | 12 | 272 | 8.0 | 17.7 | 0.00 | 0.03 | 0.00 | 33 | 1017.7 |
| 20260506233124 | 12 | 299 | 4.8 | 9.7 | 0.00 | 0.03 | 0.00 | 34 | 1017.3 |
| 20260506232637 | 12 | 281 | 4.8 | 12.9 | 0.00 | 0.03 | 0.00 | 34 | 1017.4 |
| 20260506232129 | 12 | 248 | 4.8 | 12.9 | 0.00 | 0.03 | 0.00 | 35 | 1017.4 |
| 20260506231623 | 12 | 5 | 1.6 | 14.5 | 0.00 | 0.03 | 0.00 | 36 | 1017.2 |
| 20260506231135 | 12 | 38 | 4.8 | 14.5 | 0.00 | 0.03 | 0.00 | 35 | 1017.2 |
| 20260506230629 | 12 | 340 | 4.8 | 14.5 | 0.00 | 0.03 | 0.00 | 35 | 1017.3 |
| 20260506230126 | 12 | 33 | 6.4 | 16.1 | 0.00 | 0.03 | 0.00 | 34 | 1017.1 |
| 20260506225639 | 12 | 9 | 3.2 | 16.1 | 0.00 | 0.03 | 0.00 | 35 | 1016.8 |
| 20260506225133 | 12 | 26 | 6.4 | 16.1 | 0.00 | 0.03 | 0.00 | 34 | 1016.7 |
| 20260506224625 | 12 | 23 | 6.4 | 19.3 | 0.00 | 0.03 | 0.00 | 34 | 1016.8 |
| 20260506224139 | 13 | 355 | 6.4 | 19.3 | 0.00 | 0.03 | 0.00 | 34 | 1016.8 |
| 20260506223653 | 13 | 281 | 6.4 | 17.7 | 0.00 | 0.03 | 0.00 | 35 | 1016.5 |
| 20260506223126 | 13 | 221 | 8.0 | 17.7 | 0.00 | 0.03 | 0.00 | 37 | 1016.6 |
| 20260506222639 | 13 | 23 | 8.0 | 17.7 | 0.00 | 0.03 | 0.00 | 38 | 1016.5 |
| 20260506222133 | 13 | 45 | 8.0 | 22.5 | 0.00 | 0.03 | 0.00 | 39 | 1016.1 |
| 20260506221630 | 12 | 33 | 8.0 | 22.5 | 0.00 | 0.03 | 0.00 | 39 | 1016.2 |
| 20260506221123 | 12 | 355 | 4.8 | 12.9 | 0.00 | 0.03 | 0.00 | 43 | 1016.1 |
| 20260506220636 | 12 | 36 | 6.4 | 17.7 | 0.00 | 0.03 | 0.00 | 43 | 1016.2 |
| 20260506220129 | 12 | 23 | 3.2 | 12.9 | 0.00 | 0.03 | 0.00 | 44 | 1016.3 |
| 20260506215623 | 11 | 244 | 4.8 | 22.5 | 0.00 | 0.03 | 0.00 | 46 | 1016.2 |
| 20260506215157 | 11 | 40 | 6.4 | 22.5 | 0.00 | 0.03 | 0.00 | 47 | 1016.4 |
| 20260506214629 | 11 | 308 | 4.8 | 17.7 | 0.00 | 0.03 | 0.00 | 46 | 1016.4 |
| 20260506214142 | 11 | 292 | 9.7 | 19.3 | 0.00 | 0.03 | 0.00 | 47 | 1016.7 |
| 20260506213635 | 11 | 35 | 8.0 | 20.9 | 0.00 | 0.03 | 0.00 | 48 | 1016.8 |
| 20260506213133 | 11 | 9 | 8.0 | 20.9 | 0.00 | 0.03 | 0.00 | 48 | 1017.0 |
| 20260506212647 | 11 | 277 | 6.4 | 19.3 | 0.00 | 0.03 | 0.00 | 51 | 1017.0 |
| 20260506212138 | 12 | 37 | 8.0 | 17.7 | 0.00 | 0.03 | 0.00 | 50 | 1017.1 |
| 20260506211632 | 14 | 302 | 6.4 | 17.7 | 0.00 | 0.03 | 0.00 | 38 | 1016.7 |
| 20260506211125 | 15 | 266 | 8.0 | 17.7 | 0.00 | 0.03 | 0.00 | 32 | 1015.9 |
| 20260506210639 | 15 | 293 | 4.8 | 17.7 | 0.00 | 0.03 | 0.00 | 31 | 1015.7 |
| 20260506210133 | 15 | 38 | 6.4 | 17.7 | 0.00 | 0.03 | 0.00 | 31 | 1015.5 |
| 20260506205626 | 15 | 219 | 4.8 | 9.7 | 0.00 | 0.03 | 0.00 | 32 | 1015.4 |
| 20260506205123 | 15 | 159 | 4.8 | 11.3 | 0.00 | 0.03 | 0.00 | 32 | 1015.6 |
| 20260506204637 | 15 | 169 | 3.2 | 17.7 | 0.00 | 0.03 | 0.00 | 33 | 1015.5 |
| 20260506204131 | 15 | 18 | 4.8 | 17.7 | 0.00 | 0.03 | 0.00 | 32 | 1015.7 |
| 20260506203625 | 15 | 51 | 4.8 | 12.9 | 0.00 | 0.03 | 0.00 | 32 | 1015.6 |
| 20260506203159 | 15 | 138 | 3.2 | 17.7 | 0.00 | 0.03 | 0.00 | 35 | 1015.9 |
| 20260506202652 | 15 | 118 | 6.4 | 16.1 | 0.00 | 0.03 | 0.00 | 34 | 1015.9 |
| 20260506202123 | 15 | 321 | 4.8 | 16.1 | 0.00 | 0.03 | 0.00 | 33 | 1015.9 |
| 20260506201637 | 15 | 117 | 4.8 | 14.5 | 0.00 | 0.03 | 0.00 | 33 | 1015.7 |
| 20260506201131 | 15 | 335 | 8.0 | 17.7 | 0.00 | 0.03 | 0.00 | 33 | 1015.8 |
| 20260506200628 | 15 | 289 | 8.0 | 12.9 | 0.00 | 0.03 | 0.00 | 33 | 1015.8 |
| 20260506200202 | 15 | 236 | 4.8 | 14.5 | 0.00 | 0.03 | 0.00 | 38 | 1015.8 |
| 20260506195633 | 15 | 233 | 3.2 | 14.5 | 0.00 | 0.03 | 0.00 | 39 | 1015.8 |
| 20260506195127 | 14 | 153 | 3.2 | 12.9 | 0.00 | 0.03 | 0.00 | 40 | 1016.0 |
| 20260506194641 | 13 | 72 | 4.8 | 14.5 | 0.00 | 0.03 | 0.00 | 42 | 1015.9 |
| 20260506194135 | 13 | 255 | 6.4 | 14.5 | 0.00 | 0.03 | 0.00 | 43 | 1016.0 |
| 20260506193627 | 12 | 241 | 4.8 | 14.5 | 0.00 | 0.03 | 0.00 | 45 | 1016.1 |
| 20260506193141 | 12 | 148 | 6.4 | 14.5 | 0.00 | 0.03 | 0.00 | 46 | 1016.1 |
| 20260506192655 | 11 | 32 | 4.8 | 11.3 | 0.00 | 0.03 | 0.00 | 50 | 1016.3 |
| 20260506192132 | 10 | 113 | 4.8 | 14.5 | 0.00 | 0.03 | 0.00 | 55 | 1016.5 |
| 20260506191625 | 10 | 155 | 4.8 | 14.5 | 0.00 | 0.03 | 0.00 | 53 | 1016.8 |
| 20260506191139 | 11 | 76 | 4.8 | 19.3 | 0.00 | 0.03 | 0.00 | 51 | 1017.0 |
| 20260506190633 | 11 | 234 | 6.4 | 19.3 | 0.00 | 0.03 | 0.00 | 46 | 1017.0 |
| 20260506190126 | 12 | 5 | 8.0 | 17.7 | 0.00 | 0.03 | 0.00 | 43 | 1016.7 |
| 20260506185640 | 12 | 257 | 3.2 | 16.1 | 0.00 | 0.03 | 0.00 | 40 | 1016.5 |
| 20260506185154 | 12 | 59 | 4.8 | 16.1 | 0.00 | 0.03 | 0.00 | 40 | 1016.3 |
| 20260506184626 | 12 | 192 | 3.2 | 11.3 | 0.00 | 0.03 | 0.00 | 42 | 1016.3 |
| 20260506184124 | 12 | 76 | 4.8 | 17.7 | 0.00 | 0.03 | 0.00 | 42 | 1016.6 |
| 20260506183636 | 12 | 156 | 6.4 | 17.7 | 0.00 | 0.03 | 0.00 | 41 | 1016.6 |
| 20260506183130 | 12 | 213 | 4.8 | 9.7 | 0.00 | 0.03 | 0.00 | 42 | 1016.7 |
| 20260506182623 | 12 | 272 | 3.2 | 9.7 | 0.00 | 0.03 | 0.00 | 42 | 1016.7 |
| 20260506182158 | 12 | 331 | 3.2 | 14.5 | 0.00 | 0.03 | 0.00 | 43 | 1016.7 |
| 20260506181628 | 12 | 221 | 4.8 | 14.5 | 0.00 | 0.03 | 0.00 | 41 | 1016.8 |
| 20260506181122 | 12 | 276 | 6.4 | 16.1 | 0.00 | 0.03 | 0.00 | 41 | 1016.8 |
| 20260506180636 | 12 | 30 | 6.4 | 16.1 | 0.00 | 0.03 | 0.00 | 43 | 1016.7 |
| 20260506180130 | 12 | 320 | 4.8 | 11.3 | 0.00 | 0.03 | 0.00 | 39 | 1016.8 |
| 20260506175622 | 12 | 5 | 3.2 | 12.9 | 0.00 | 0.03 | 0.00 | 40 | 1016.8 |
| 20260506175156 | 12 | 28 | 3.2 | 16.1 | 0.00 | 0.03 | 0.00 | 40 | 1016.7 |
| 20260506174632 | 12 | 40 | 6.4 | 16.1 | 0.00 | 0.03 | 0.00 | 39 | 1016.6 |
| 20260506174126 | 12 | 39 | 8.0 | 17.7 | 0.00 | 0.03 | 0.00 | 38 | 1016.7 |
| 20260506173639 | 12 | 33 | 8.0 | 17.7 | 0.00 | 0.03 | 0.00 | 39 | 1016.8 |
| 20260506173134 | 12 | 34 | 4.8 | 11.3 | 0.00 | 0.03 | 0.00 | 39 | 1016.6 |
| 20260506172647 | 12 | 54 | 4.8 | 11.3 | 0.00 | 0.03 | 0.00 | 40 | 1016.6 |
| 20260506172139 | 12 | 87 | 4.8 | 12.9 | 0.00 | 0.03 | 0.00 | 41 | 1016.6 |
| 20260506171633 | 12 | 61 | 6.4 | 12.9 | 0.00 | 0.03 | 0.00 | 39 | 1016.7 |
| 20260506171125 | 12 | 26 | 4.8 | 12.9 | 0.00 | 0.03 | 0.00 | 41 | 1016.7 |
| 20260506170644 | 12 | 355 | 4.8 | 16.1 | 0.00 | 0.03 | 0.00 | 40 | 1016.8 |
| 20260506170137 | 12 | 37 | 6.4 | 16.1 | 0.00 | 0.03 | 0.00 | 41 | 1016.6 |
| 20260506165631 | 12 | 31 | 4.8 | 9.7 | 0.00 | 0.03 | 0.00 | 41 | 1016.4 |
| 20260506165125 | 12 | 19 | 6.4 | 14.5 | 0.00 | 0.03 | 0.00 | 42 | 1016.3 |
| 20260506164640 | 11 | 27 | 6.4 | 14.5 | 0.00 | 0.03 | 0.00 | 43 | 1016.3 |
| 20260506164153 | 11 | 67 | 6.4 | 14.5 | 0.00 | 0.03 | 0.00 | 43 | 1016.3 |
| 20260506163646 | 11 | 252 | 3.2 | 14.5 | 0.00 | 0.03 | 0.00 | 45 | 1016.2 |
| 20260506163139 | 11 | 31 | 3.2 | 14.5 | 0.00 | 0.03 | 0.00 | 46 | 1016.2 |
| 20260506162633 | 11 | 290 | 3.2 | 12.9 | 0.00 | 0.03 | 0.00 | 46 | 1016.1 |
| 20260506162129 | 11 | 161 | 4.8 | 12.9 | 0.00 | 0.03 | 0.00 | 46 | 1016.1 |
| 20260506161623 | 11 | 298 | 3.2 | 11.3 | 0.00 | 0.03 | 0.00 | 50 | 1016.2 |
| 20260506161137 | 10 | 149 | 4.8 | 14.5 | 0.00 | 0.03 | 0.00 | 51 | 1016.1 |
| 20260506160631 | 10 | 30 | 4.8 | 14.5 | 0.00 | 0.03 | 0.00 | 50 | 1016.2 |
| 20260506160125 | 10 | 279 | 3.2 | 14.5 | 0.00 | 0.03 | 0.00 | 51 | 1016.4 |
| 20260506155637 | 9 | 5 | 6.4 | 16.1 | 0.00 | 0.03 | 0.00 | 51 | 1016.3 |
| 20260506155152 | 9 | 277 | 8.0 | 16.1 | 0.00 | 0.03 | 0.00 | 52 | 1016.5 |
| 20260506154646 | 8 | 240 | 6.4 | 14.5 | 0.00 | 0.03 | 0.00 | 53 | 1016.5 |
| 20260506154138 | 8 | 15 | 6.4 | 17.7 | 0.00 | 0.03 | 0.00 | 52 | 1016.6 |
| 20260506153636 | 8 | 255 | 6.4 | 19.3 | 0.00 | 0.03 | 0.00 | 52 | 1016.6 |
| 20260506153129 | 8 | 29 | 8.0 | 19.3 | 0.00 | 0.03 | 0.00 | 53 | 1016.6 |
| 20260506152623 | 8 | 350 | 4.8 | 19.3 | 0.00 | 0.03 | 0.00 | 53 | 1016.7 |
| 20260506152137 | 8 | 14 | 6.4 | 19.3 | 0.00 | 0.03 | 0.00 | 53 | 1016.8 |
| 20260506151630 | 8 | 132 | 1.6 | 9.7 | 0.00 | 0.03 | 0.00 | 56 | 1016.8 |
| 20260506151123 | 8 | 213 | 3.2 | 8.0 | 0.00 | 0.03 | 0.00 | 57 | 1016.6 |
| 20260506150637 | 8 | 163 | 3.2 | 6.4 | 0.00 | 0.03 | 0.00 | 58 | 1016.6 |
| 20260506150132 | 7 | 248 | 1.6 | 4.8 | 0.00 | 0.03 | 0.00 | 58 | 1016.7 |
| 20260506145630 | 7 | 75 | 3.2 | 14.5 | 0.00 | 0.03 | 0.00 | 61 | 1016.7 |
| 20260506145124 | 7 | 30 | 9.7 | 16.1 | 0.00 | 0.03 | 0.00 | 57 | 1016.7 |
| 20260506144638 | 7 | 36 | 9.7 | 16.1 | 0.00 | 0.03 | 0.00 | 56 | 1016.8 |
| 20260506144132 | 7 | 34 | 1.6 | 9.7 | 0.00 | 0.03 | 0.00 | 57 | 1016.8 |
| 20260506143625 | 7 | 56 | 4.8 | 8.0 | 0.00 | 0.03 | 0.00 | 60 | 1016.8 |
| 20260506143139 | 7 | 109 | 3.2 | 9.7 | 0.00 | 0.03 | 0.00 | 60 | 1016.7 |
| 20260506142633 | 6 | 61 | 6.4 | 9.7 | 0.00 | 0.03 | 0.00 | 60 | 1016.7 |
| 20260506142127 | 6 | 43 | 0.0 | 8.0 | 0.00 | 0.03 | 0.00 | 60 | 1016.6 |
| 20260506141625 | 6 | 61 | 6.4 | 8.0 | 0.00 | 0.03 | 0.00 | 59 | 1016.6 |
| 20260506141158 | 6 | 9 | 6.4 | 8.0 | 0.00 | 0.03 | 0.00 | 58 | 1016.6 |
| 20260506140651 | 7 | 355 | 1.6 | 8.0 | 0.00 | 0.03 | 0.00 | 58 | 1016.4 |
| 20260506140123 | 7 | 55 | 4.8 | 9.7 | 0.00 | 0.03 | 0.00 | 57 | 1016.3 |
| 20260506135635 | 6 | 146 | 4.8 | 11.3 | 0.00 | 0.03 | 0.00 | 59 | 1016.2 |
| 20260506135130 | 6 | 133 | 3.2 | 11.3 | 0.00 | 0.03 | 0.00 | 60 | 1016.2 |
| 20260506134623 | 6 | 43 | 3.2 | 11.3 | 0.00 | 0.03 | 0.00 | 59 | 1016.2 |
| 20260506134136 | 6 | 83 | 4.8 | 16.1 | 0.00 | 0.03 | 0.00 | 61 | 1016.3 |
| 20260506133630 | 6 | 207 | 3.2 | 16.1 | 0.00 | 0.03 | 0.00 | 61 | 1016.4 |
| 20260506133123 | 6 | 183 | 3.2 | 9.7 | 0.00 | 0.03 | 0.00 | 62 | 1016.4 |
| 20260506132641 | 5 | 108 | 4.8 | 12.9 | 0.00 | 0.03 | 0.00 | 61 | 1016.4 |
| 20260506132134 | 5 | 276 | 6.4 | 14.5 | 0.00 | 0.03 | 0.00 | 60 | 1016.1 |
| 20260506131627 | 5 | 132 | 1.6 | 14.5 | 0.00 | 0.03 | 0.00 | 61 | 1016.1 |
| 20260506131142 | 5 | 76 | 4.8 | 14.5 | 0.00 | 0.03 | 0.00 | 61 | 1016.1 |
| 20260506130635 | 5 | 90 | 6.4 | 16.1 | 0.00 | 0.03 | 0.00 | 61 | 1016.1 |
| 20260506130128 | 5 | 216 | 4.8 | 17.7 | 0.00 | 0.03 | 0.00 | 63 | 1016.0 |
| 20260506125701 | 5 | 174 | 4.8 | 17.7 | 0.00 | 0.03 | 0.00 | 63 | 1016.0 |
| 20260506125134 | 5 | 39 | 4.8 | 16.1 | 0.00 | 0.03 | 0.00 | 64 | 1016.0 |
| 20260506124649 | 5 | 149 | 8.0 | 12.9 | 0.00 | 0.03 | 0.00 | 67 | 1016.0 |
| 20260506124125 | 5 | 156 | 0.0 | 8.0 | 0.00 | 0.03 | 0.00 | 69 | 1015.9 |
| 20260506123639 | 5 | 173 | 3.2 | 8.0 | 0.00 | 0.03 | 0.00 | 69 | 1015.9 |
| 20260506123132 | 5 | 83 | 0.0 | 0.0 | 0.00 | 0.03 | 0.00 | 66 | 1015.9 |
| 20260506122626 | 5 | 81 | 0.0 | 3.2 | 0.00 | 0.03 | 0.00 | 66 | 1015.8 |
| 20260506122200 | 5 | 81 | 1.6 | 3.2 | 0.00 | 0.03 | 0.00 | 66 | 1015.7 |
| 20260506121633 | 5 | 81 | 1.6 | 4.8 | 0.00 | 0.03 | 0.00 | 66 | 1015.7 |
| 20260506121146 | 5 | 319 | 1.6 | 4.8 | 0.00 | 0.03 | 0.00 | 65 | 1015.7 |
| 20260506120638 | 5 | 254 | 3.2 | 4.8 | 0.00 | 0.03 | 0.00 | 64 | 1015.4 |
| 20260506120153 | 5 | 136 | 1.6 | 8.0 | 0.00 | 0.03 | 0.00 | 64 | 1015.4 |
| 20260506115626 | 5 | 46 | 1.6 | 8.0 | 0.00 | 0.03 | 0.00 | 64 | 1015.4 |
| 20260506115124 | 5 | 136 | 3.2 | 17.7 | 0.00 | 0.03 | 0.00 | 64 | 1015.4 |
| 20260506114638 | 5 | 57 | 3.2 | 17.7 | 0.00 | 0.03 | 0.00 | 63 | 1015.3 |
| 20260506114132 | 5 | 26 | 4.8 | 17.7 | 0.00 | 0.03 | 0.00 | 62 | 1015.2 |
| 20260506113625 | 5 | 80 | 3.2 | 19.3 | 0.00 | 0.03 | 0.00 | 62 | 1015.0 |
| 20260506113138 | 5 | 267 | 6.4 | 19.3 | 0.00 | 0.03 | 0.00 | 62 | 1014.9 |
| 20260506112632 | 5 | 75 | 6.4 | 17.7 | 0.00 | 0.03 | 0.00 | 63 | 1014.8 |
| 20260506112125 | 5 | 298 | 4.8 | 22.5 | 0.00 | 0.03 | 0.00 | 65 | 1015.0 |
| 20260506111623 | 5 | 241 | 8.0 | 22.5 | 0.00 | 0.03 | 0.00 | 65 | 1015.0 |
| 20260506111138 | 5 | 142 | 1.6 | 12.9 | 0.00 | 0.03 | 0.00 | 66 | 1015.0 |
| 20260506110630 | 5 | 345 | 3.2 | 12.9 | 0.00 | 0.03 | 0.00 | 66 | 1015.0 |
| 20260506110125 | 5 | 349 | 1.6 | 11.3 | 0.00 | 0.03 | 0.00 | 65 | 1015.0 |
| 20260506105637 | 5 | 335 | 3.2 | 9.7 | 0.00 | 0.03 | 0.00 | 65 | 1015.1 |
| 20260506105131 | 4 | 186 | 3.2 | 11.3 | 0.00 | 0.03 | 0.00 | 65 | 1015.2 |
| 20260506104624 | 4 | 232 | 0.0 | 8.0 | 0.00 | 0.03 | 0.00 | 66 | 1015.4 |
| 20260506104137 | 4 | 269 | 1.6 | 8.0 | 0.00 | 0.03 | 0.00 | 66 | 1015.4 |
| 20260506103631 | 4 | 44 | 3.2 | 8.0 | 0.00 | 0.03 | 0.00 | 66 | 1015.6 |
| 20260506103129 | 4 | 237 | 1.6 | 4.8 | 0.00 | 0.03 | 0.00 | 65 | 1015.6 |
| 20260506102623 | 5 | 221 | 0.0 | 4.8 | 0.00 | 0.03 | 0.00 | 65 | 1015.6 |
| 20260506102137 | 5 | 215 | 3.2 | 4.8 | 0.00 | 0.03 | 0.00 | 64 | 1015.5 |
| 20260506101651 | 5 | 57 | 0.0 | 3.2 | 0.00 | 0.03 | 0.00 | 63 | 1015.4 |
| 20260506101124 | 5 | 57 | 0.0 | 4.8 | 0.00 | 0.03 | 0.00 | 63 | 1015.4 |
| 20260506100637 | 5 | 59 | 0.0 | 12.9 | 0.00 | 0.03 | 0.00 | 63 | 1015.3 |
| 20260506100130 | 5 | 45 | 6.4 | 12.9 | 0.00 | 0.03 | 0.00 | 62 | 1015.4 |
| 20260506095643 | 5 | 57 | 6.4 | 9.7 | 0.00 | 0.03 | 0.00 | 62 | 1015.5 |
| 20260506095137 | 5 | 135 | 1.6 | 12.9 | 0.00 | 0.03 | 0.00 | 62 | 1015.4 |
| 20260506094635 | 5 | 102 | 4.8 | 12.9 | 0.00 | 0.03 | 0.00 | 62 | 1015.4 |
| 20260506094127 | 5 | 63 | 3.2 | 6.4 | 0.00 | 0.03 | 0.00 | 63 | 1015.3 |
| 20260506093641 | 5 | 144 | 4.8 | 6.4 | 0.00 | 0.03 | 0.00 | 63 | 1015.1 |
| 20260506093155 | 5 | 41 | 1.6 | 9.7 | 0.00 | 0.03 | 0.00 | 63 | 1015.1 |
| 20260506092628 | 5 | 56 | 4.8 | 9.7 | 0.00 | 0.03 | 0.00 | 63 | 1015.1 |
| 20260506092122 | 5 | 96 | 3.2 | 9.7 | 0.00 | 0.03 | 0.00 | 64 | 1015.0 |
| 20260506091637 | 5 | 120 | 3.2 | 8.0 | 0.00 | 0.03 | 0.00 | 63 | 1015.0 |
| 20260506091130 | 5 | 147 | 1.6 | 8.0 | 0.00 | 0.03 | 0.00 | 62 | 1015.0 |
| 20260506090628 | 5 | 72 | 1.6 | 8.0 | 0.00 | 0.03 | 0.00 | 62 | 1015.0 |
| 20260506090123 | 5 | 209 | 1.6 | 8.0 | 0.00 | 0.03 | 0.00 | 62 | 1015.0 |
| 20260506085636 | 5 | 92 | 1.6 | 6.4 | 0.00 | 0.03 | 0.00 | 62 | 1015.1 |
| 20260506085150 | 5 | 177 | 3.2 | 12.9 | 0.00 | 0.03 | 0.00 | 61 | 1015.2 |
| 20260506084643 | 5 | 219 | 4.8 | 12.9 | 0.00 | 0.03 | 0.00 | 62 | 1015.1 |
| 20260506084135 | 5 | 21 | 4.8 | 12.9 | 0.00 | 0.03 | 0.00 | 62 | 1015.1 |
| 20260506083648 | 5 | 282 | 4.8 | 11.3 | 0.00 | 0.03 | 0.00 | 64 | 1015.2 |
| 20260506083140 | 5 | 170 | 1.6 | 9.7 | 0.00 | 0.03 | 0.00 | 63 | 1015.4 |
| 20260506082655 | 5 | 271 | 4.8 | 9.7 | 0.00 | 0.03 | 0.00 | 63 | 1015.4 |
| 20260506082127 | 5 | 153 | 0.0 | 8.0 | 0.00 | 0.03 | 0.00 | 63 | 1015.4 |
| 20260506081641 | 5 | 162 | 4.8 | 11.3 | 0.00 | 0.03 | 0.00 | 62 | 1015.4 |
| 20260506081135 | 6 | 128 | 3.2 | 11.3 | 0.00 | 0.03 | 0.00 | 62 | 1015.4 |
| 20260506080653 | 5 | 250 | 3.2 | 6.4 | 0.00 | 0.03 | 0.00 | 62 | 1015.3 |
| 20260506080125 | 5 | 5 | 3.2 | 11.3 | 0.00 | 0.03 | 0.00 | 62 | 1015.2 |
| 20260506073129 | 6 | 222 | 4.8 | 14.5 | 0.00 | 0.03 | 0.00 | 62 | 1015.3 |
| 20260506072647 | 6 | 103 | 0.0 | 8.0 | 0.00 | 0.03 | 0.00 | 63 | 1015.4 |
| 20260506072140 | 6 | 157 | 3.2 | 8.0 | 0.00 | 0.03 | 0.00 | 64 | 1015.4 |
| 20260506071633 | 6 | 184 | 1.6 | 6.4 | 0.00 | 0.03 | 0.00 | 63 | 1015.5 |
| 20260506071148 | 6 | 188 | 0.0 | 6.4 | 0.00 | 0.03 | 0.00 | 64 | 1015.6 |
| 20260506070641 | 6 | 286 | 1.6 | 8.0 | 0.00 | 0.03 | 0.00 | 64 | 1015.8 |
| 20260506070136 | 6 | 350 | 1.6 | 12.9 | 0.00 | 0.03 | 0.00 | 64 | 1015.7 |